| time (UTC) | temp F | wind direction | speed MPH | gust MPH | rain 1hr in | rain 24hr in | rain mn in | humidity % | barometer mb |
| 20260902223117 | 68 | 0 | 2.0 | 11.0 | 0.00 | 0.07 | 0.06 | 88 | 1019.8 |
| 20260902222556 | 68 | 138 | 2.0 | 11.0 | 0.00 | 0.07 | 0.06 | 88 | 1019.7 |
| 20260902222058 | 68 | 86 | 4.0 | 9.0 | 0.00 | 0.07 | 0.06 | 88 | 1019.8 |
| 20260902221606 | 68 | 72 | 4.0 | 8.0 | 0.00 | 0.07 | 0.06 | 88 | 1019.8 |
| 20260902221059 | 68 | 88 | 3.0 | 9.0 | 0.00 | 0.07 | 0.06 | 89 | 1019.9 |
| 20260902220553 | 68 | 0 | 3.0 | 9.0 | 0.00 | 0.07 | 0.06 | 89 | 1019.8 |
| 20260902220106 | 68 | 30 | 2.0 | 7.0 | 0.00 | 0.07 | 0.06 | 89 | 1019.8 |
| 20260902215556 | 68 | 159 | 2.0 | 8.0 | 0.00 | 0.07 | 0.06 | 89 | 1019.7 |
| 20260902215059 | 68 | 107 | 3.0 | 8.0 | 0.00 | 0.07 | 0.06 | 89 | 1019.8 |
| 20260902214601 | 68 | 113 | 1.0 | 7.0 | 0.00 | 0.07 | 0.06 | 89 | 1019.7 |
| 20260902214057 | 68 | 92 | 2.0 | 8.0 | 0.00 | 0.07 | 0.06 | 89 | 1019.7 |
| 20260902213556 | 68 | 0 | 3.0 | 8.0 | 0.00 | 0.07 | 0.06 | 89 | 1019.6 |
| 20260902213110 | 69 | 65 | 3.0 | 8.0 | 0.00 | 0.07 | 0.06 | 89 | 1019.5 |
| 20260902212558 | 69 | 90 | 2.0 | 9.0 | 0.00 | 0.07 | 0.06 | 89 | 1019.4 |
| 20260902212056 | 69 | 88 | 1.0 | 9.0 | 0.00 | 0.07 | 0.06 | 89 | 1019.3 |
| 20260902211606 | 69 | 115 | 3.0 | 9.0 | 0.00 | 0.07 | 0.06 | 89 | 1019.3 |
| 20260902211054 | 69 | 0 | 2.0 | 8.0 | 0.00 | 0.07 | 0.06 | 89 | 1019.5 |
| 20260902210556 | 69 | 111 | 2.0 | 8.0 | 0.00 | 0.07 | 0.06 | 89 | 1019.6 |
| 20260902210103 | 69 | 84 | 2.0 | 8.0 | 0.00 | 0.07 | 0.06 | 89 | 1019.5 |
| 20260902205554 | 69 | 66 | 2.0 | 7.0 | 0.01 | 0.07 | 0.06 | 89 | 1019.5 |
| 20260902205056 | 69 | 80 | 2.0 | 6.0 | 0.01 | 0.07 | 0.06 | 89 | 1019.4 |
| 20260902204640 | 69 | 0 | 0.0 | 4.0 | 0.03 | 0.07 | 0.06 | 88 | 1019.5 |
| 20260902204056 | 69 | 0 | 1.0 | 4.0 | 0.05 | 0.07 | 0.06 | 88 | 1019.5 |
| 20260902203557 | 69 | 96 | 1.0 | 7.0 | 0.05 | 0.07 | 0.06 | 88 | 1019.5 |
| 20260902203107 | 69 | 105 | 1.0 | 7.0 | 0.05 | 0.07 | 0.06 | 87 | 1019.3 |
| 20260902202600 | 69 | 132 | 2.0 | 8.0 | 0.05 | 0.07 | 0.06 | 87 | 1019.3 |
| 20260902202057 | 69 | 128 | 1.0 | 8.0 | 0.05 | 0.07 | 0.06 | 87 | 1019.5 |
| 20260902201606 | 69 | 95 | 2.0 | 8.0 | 0.05 | 0.07 | 0.06 | 87 | 1019.5 |
| 20260902201102 | 69 | 0 | 1.0 | 8.0 | 0.05 | 0.07 | 0.06 | 86 | 1019.3 |
| 20260902200557 | 69 | 140 | 2.0 | 8.0 | 0.05 | 0.07 | 0.06 | 86 | 1019.3 |
| 20260902200104 | 70 | 127 | 2.0 | 9.0 | 0.05 | 0.07 | 0.06 | 85 | 1019.4 |
| 20260902195558 | 70 | 129 | 1.0 | 9.0 | 0.04 | 0.06 | 0.05 | 85 | 1019.5 |
| 20260902195057 | 70 | 99 | 1.0 | 8.0 | 0.04 | 0.06 | 0.05 | 84 | 1019.5 |
| 20260902194603 | 70 | 135 | 2.0 | 8.0 | 0.02 | 0.04 | 0.03 | 83 | 1019.6 |
| 20260902194057 | 70 | 101 | 2.0 | 8.0 | 0.00 | 0.02 | 0.01 | 82 | 1019.9 |
| 20260902193557 | 70 | 74 | 2.0 | 5.0 | 0.00 | 0.02 | 0.01 | 81 | 1019.9 |
| 20260902193058 | 70 | 45 | 1.0 | 4.0 | 0.00 | 0.02 | 0.01 | 80 | 1020.4 |
| 20260902192557 | 70 | 0 | 0.0 | 7.0 | 0.00 | 0.02 | 0.01 | 80 | 1020.7 |
| 20260902192056 | 70 | 40 | 2.0 | 8.0 | 0.00 | 0.02 | 0.01 | 80 | 1020.4 |
| 20260902191609 | 70 | 97 | 1.0 | 10.0 | 0.00 | 0.02 | 0.01 | 80 | 1020.4 |
| 20260902191056 | 70 | 57 | 4.0 | 13.0 | 0.00 | 0.02 | 0.01 | 79 | 1020.1 |
| 20260902190556 | 71 | 80 | 5.0 | 13.0 | 0.00 | 0.02 | 0.01 | 79 | 1020.0 |
| 20260902190106 | 71 | 146 | 4.0 | 13.0 | 0.00 | 0.02 | 0.01 | 79 | 1019.9 |
| 20260902185558 | 71 | 117 | 4.0 | 11.0 | 0.00 | 0.02 | 0.01 | 79 | 1020.0 |
| 20260902185056 | 71 | 77 | 2.0 | 10.0 | 0.00 | 0.02 | 0.01 | 79 | 1020.0 |
| 20260902184602 | 71 | 68 | 4.0 | 10.0 | 0.00 | 0.02 | 0.01 | 79 | 1020.0 |
| 20260902184057 | 71 | 103 | 3.0 | 10.0 | 0.00 | 0.02 | 0.01 | 78 | 1019.9 |
| 20260902183557 | 71 | 121 | 3.0 | 11.0 | 0.00 | 0.02 | 0.01 | 78 | 1019.8 |
| 20260902183113 | 71 | 150 | 3.0 | 11.0 | 0.00 | 0.02 | 0.01 | 78 | 1019.8 |
| 20260902182556 | 71 | 77 | 5.0 | 11.0 | 0.00 | 0.02 | 0.01 | 78 | 1019.8 |
| 20260902182056 | 71 | 113 | 6.0 | 12.0 | 0.00 | 0.02 | 0.01 | 78 | 1019.7 |
| 20260902181614 | 71 | 100 | 4.0 | 12.0 | 0.00 | 0.02 | 0.01 | 78 | 1020.0 |
| 20260902181057 | 71 | 76 | 6.0 | 12.0 | 0.00 | 0.02 | 0.01 | 79 | 1020.2 |
| 20260902180553 | 71 | 60 | 3.0 | 14.0 | 0.00 | 0.02 | 0.01 | 79 | 1020.1 |
| 20260902180109 | 70 | 101 | 5.0 | 14.0 | 0.00 | 0.02 | 0.01 | 79 | 1020.2 |
| 20260902175557 | 70 | 78 | 5.0 | 14.0 | 0.00 | 0.02 | 0.01 | 79 | 1020.3 |
| 20260902175056 | 70 | 103 | 3.0 | 11.0 | 0.00 | 0.02 | 0.01 | 80 | 1020.3 |
| 20260902174603 | 70 | 104 | 4.0 | 12.0 | 0.00 | 0.02 | 0.01 | 80 | 1020.5 |
| 20260902174056 | 70 | 67 | 3.0 | 12.0 | 0.00 | 0.02 | 0.01 | 80 | 1020.4 |
| 20260902173554 | 70 | 53 | 4.0 | 12.0 | 0.00 | 0.02 | 0.01 | 80 | 1020.4 |
| 20260902173118 | 70 | 65 | 3.0 | 9.0 | 0.00 | 0.02 | 0.01 | 80 | 1020.4 |
| 20260902172556 | 70 | 42 | 2.0 | 11.0 | 0.00 | 0.02 | 0.01 | 80 | 1020.4 |
| 20260902172057 | 70 | 75 | 4.0 | 11.0 | 0.00 | 0.02 | 0.01 | 80 | 1020.4 |
| 20260902171609 | 70 | 147 | 4.0 | 17.0 | 0.00 | 0.02 | 0.01 | 79 | 1020.5 |
| 20260902171056 | 70 | 73 | 6.0 | 17.0 | 0.00 | 0.02 | 0.01 | 79 | 1020.4 |
| 20260902170556 | 70 | 113 | 4.0 | 14.0 | 0.00 | 0.02 | 0.01 | 80 | 1020.2 |
| 20260902170106 | 70 | 96 | 5.0 | 14.0 | 0.00 | 0.02 | 0.01 | 80 | 1020.1 |
| 20260902165553 | 70 | 81 | 5.0 | 14.0 | 0.00 | 0.02 | 0.01 | 79 | 1020.0 |
| 20260902165056 | 70 | 112 | 6.0 | 17.0 | 0.00 | 0.02 | 0.01 | 79 | 1020.0 |
| 20260902164607 | 70 | 72 | 7.0 | 17.0 | 0.00 | 0.02 | 0.01 | 79 | 1020.1 |
| 20260902164057 | 70 | 125 | 6.0 | 13.0 | 0.00 | 0.02 | 0.01 | 79 | 1020.1 |
| 20260902163556 | 70 | 81 | 3.0 | 13.0 | 0.00 | 0.02 | 0.01 | 80 | 1020.3 |
| 20260902163103 | 70 | 108 | 5.0 | 13.0 | 0.00 | 0.02 | 0.01 | 79 | 1020.4 |
| 20260902162555 | 70 | 132 | 5.0 | 15.0 | 0.00 | 0.02 | 0.01 | 80 | 1020.5 |
| 20260902162054 | 70 | 122 | 6.0 | 15.0 | 0.00 | 0.02 | 0.01 | 80 | 1020.5 |
| 20260902161612 | 70 | 80 | 1.0 | 14.0 | 0.00 | 0.02 | 0.01 | 80 | 1020.7 |
| 20260902161058 | 70 | 139 | 4.0 | 14.0 | 0.00 | 0.02 | 0.01 | 79 | 1020.6 |
| 20260902160556 | 70 | 74 | 4.0 | 14.0 | 0.00 | 0.02 | 0.01 | 79 | 1020.5 |
| 20260902160104 | 70 | 126 | 5.0 | 13.0 | 0.00 | 0.02 | 0.01 | 79 | 1020.6 |
| 20260902155556 | 70 | 153 | 4.0 | 13.0 | 0.00 | 0.02 | 0.01 | 79 | 1020.6 |
| 20260902155057 | 70 | 121 | 5.0 | 11.0 | 0.00 | 0.02 | 0.01 | 79 | 1020.5 |
| 20260902154605 | 70 | 154 | 4.0 | 10.0 | 0.00 | 0.02 | 0.01 | 78 | 1020.6 |
| 20260902154056 | 70 | 180 | 2.0 | 9.0 | 0.00 | 0.02 | 0.01 | 79 | 1020.7 |
| 20260902153556 | 70 | 130 | 1.0 | 11.0 | 0.00 | 0.02 | 0.01 | 80 | 1020.7 |
| 20260902153108 | 70 | 78 | 5.0 | 14.0 | 0.00 | 0.02 | 0.01 | 79 | 1020.7 |
| 20260902152600 | 70 | 142 | 5.0 | 14.0 | 0.00 | 0.02 | 0.01 | 79 | 1020.8 |
| 20260902152056 | 70 | 119 | 4.0 | 9.0 | 0.00 | 0.02 | 0.01 | 79 | 1020.8 |
| 20260902151607 | 70 | 144 | 2.0 | 9.0 | 0.00 | 0.02 | 0.01 | 80 | 1020.7 |
| 20260902151058 | 70 | 146 | 2.0 | 10.0 | 0.00 | 0.02 | 0.01 | 79 | 1021.1 |
| 20260902150556 | 70 | 62 | 3.0 | 10.0 | 0.00 | 0.02 | 0.01 | 80 | 1021.0 |
| 20260902145557 | 69 | 121 | 2.0 | 9.0 | 0.00 | 0.04 | 0.01 | 81 | 1020.8 |
| 20260902145058 | 69 | 124 | 2.0 | 8.0 | 0.00 | 0.04 | 0.01 | 81 | 1020.7 |
| 20260902144559 | 69 | 77 | 3.0 | 10.0 | 0.00 | 0.04 | 0.01 | 81 | 1020.9 |
| 20260902144056 | 69 | 125 | 4.0 | 10.0 | 0.00 | 0.04 | 0.01 | 81 | 1021.0 |
| 20260902143555 | 69 | 78 | 4.0 | 9.0 | 0.00 | 0.04 | 0.01 | 82 | 1020.8 |
| 20260902143103 | 69 | 62 | 3.0 | 9.0 | 0.00 | 0.04 | 0.01 | 84 | 1020.7 |
| 20260902142557 | 68 | 47 | 2.0 | 9.0 | 0.00 | 0.04 | 0.01 | 85 | 1020.9 |
| 20260902142102 | 68 | 141 | 4.0 | 9.0 | 0.00 | 0.04 | 0.01 | 85 | 1021.0 |
| 20260902141602 | 68 | 76 | 2.0 | 8.0 | 0.00 | 0.04 | 0.01 | 84 | 1021.1 |
| 20260902141058 | 68 | 88 | 2.0 | 8.0 | 0.00 | 0.04 | 0.01 | 84 | 1021.0 |
| 20260902140558 | 68 | 103 | 4.0 | 8.0 | 0.00 | 0.04 | 0.01 | 84 | 1021.0 |
| 20260902135558 | 67 | 76 | 1.0 | 9.0 | 0.00 | 0.15 | 0.01 | 86 | 1020.9 |
| 20260902135058 | 67 | 287 | 4.0 | 9.0 | 0.00 | 0.15 | 0.01 | 87 | 1020.7 |
| 20260902134617 | 67 | 67 | 3.0 | 8.0 | 0.00 | 0.15 | 0.01 | 88 | 1020.7 |
| 20260902134057 | 66 | 50 | 4.0 | 7.0 | 0.00 | 0.15 | 0.01 | 90 | 1020.6 |
| 20260902133557 | 66 | 80 | 2.0 | 7.0 | 0.00 | 0.15 | 0.01 | 92 | 1020.6 |
| 20260902133109 | 66 | 82 | 3.0 | 7.0 | 0.00 | 0.15 | 0.01 | 93 | 1020.5 |
| 20260902132559 | 65 | 78 | 1.0 | 5.0 | 0.00 | 0.15 | 0.01 | 95 | 1020.5 |
| 20260902132102 | 64 | 0 | 2.0 | 5.0 | 0.00 | 0.15 | 0.01 | 96 | 1020.5 |
| 20260902131605 | 64 | 65 | 0.0 | 5.0 | 0.00 | 0.15 | 0.01 | 96 | 1020.5 |
| 20260902131057 | 64 | 65 | 1.0 | 6.0 | 0.00 | 0.15 | 0.01 | 96 | 1020.6 |
| 20260902130557 | 64 | 62 | 2.0 | 6.0 | 0.00 | 0.15 | 0.01 | 96 | 1020.6 |
| 20260902130115 | 64 | 41 | 2.0 | 7.0 | 0.00 | 0.15 | 0.01 | 96 | 1020.3 |
| 20260902125556 | 64 | 0 | 1.0 | 7.0 | 0.00 | 0.15 | 0.01 | 96 | 1020.2 |
| 20260902125056 | 63 | 76 | 1.0 | 7.0 | 0.00 | 0.15 | 0.01 | 96 | 1020.2 |
| 20260902124604 | 63 | 0 | 1.0 | 7.0 | 0.00 | 0.15 | 0.01 | 96 | 1020.1 |
| 20260902124056 | 63 | 64 | 2.0 | 11.0 | 0.00 | 0.15 | 0.01 | 96 | 1020.0 |
| 20260902123556 | 63 | 69 | 4.0 | 11.0 | 0.00 | 0.15 | 0.01 | 96 | 1020.2 |
| 20260902123109 | 63 | 26 | 4.0 | 11.0 | 0.00 | 0.15 | 0.01 | 96 | 1020.2 |
| 20260902122557 | 63 | 55 | 4.0 | 10.0 | 0.00 | 0.15 | 0.01 | 96 | 1020.2 |
| 20260902122056 | 63 | 68 | 5.0 | 10.0 | 0.00 | 0.15 | 0.01 | 96 | 1020.3 |
| 20260902121601 | 63 | 34 | 1.0 | 9.0 | 0.00 | 0.15 | 0.01 | 96 | 1020.1 |
| 20260902121059 | 63 | 45 | 3.0 | 9.0 | 0.00 | 0.15 | 0.01 | 96 | 1020.1 |
| 20260902120559 | 62 | 53 | 1.0 | 7.0 | 0.00 | 0.15 | 0.01 | 96 | 1020.2 |
| 20260902115558 | 62 | 0.0 | 0.0 | 0.00 | 0.15 | 0.01 | 96 | 1020.3 | |
| 20260902115056 | 62 | 0.0 | 0.0 | 0.00 | 0.15 | 0.01 | 96 | 1020.3 | |
| 20260902114603 | 62 | 0.0 | 0.0 | 0.00 | 0.15 | 0.01 | 96 | 1020.4 | |
| 20260902114059 | 62 | 0.0 | 0.0 | 0.00 | 0.15 | 0.01 | 96 | 1020.4 | |
| 20260902113556 | 62 | 0.0 | 0.0 | 0.00 | 0.15 | 0.01 | 96 | 1020.6 | |
| 20260902113104 | 62 | 0.0 | 0.0 | 0.00 | 0.15 | 0.01 | 96 | 1020.6 | |
| 20260902112557 | 62 | 0.0 | 0.0 | 0.00 | 0.15 | 0.01 | 96 | 1020.6 | |
| 20260902112055 | 62 | 0.0 | 0.0 | 0.00 | 0.15 | 0.01 | 96 | 1020.5 | |
| 20260902111604 | 62 | 0.0 | 0.0 | 0.00 | 0.15 | 0.01 | 96 | 1020.4 | |
| 20260902111056 | 62 | 0.0 | 0.0 | 0.00 | 0.15 | 0.01 | 96 | 1020.4 | |
| 20260902110556 | 62 | 0.0 | 0.0 | 0.00 | 0.15 | 0.01 | 96 | 1020.3 | |
| 20260902110106 | 62 | 0.0 | 0.0 | 0.00 | 0.15 | 0.01 | 96 | 1020.3 | |
| 20260902105556 | 62 | 0.0 | 0.0 | 0.00 | 0.16 | 0.01 | 96 | 1020.4 | |
| 20260902105056 | 62 | 0.0 | 0.0 | 0.00 | 0.16 | 0.01 | 96 | 1020.2 | |
| 20260902104619 | 62 | 0.0 | 0.0 | 0.00 | 0.16 | 0.01 | 96 | 1020.2 | |
| 20260902104059 | 62 | 0.0 | 0.0 | 0.00 | 0.16 | 0.01 | 96 | 1020.2 | |
| 20260902103556 | 62 | 0.0 | 0.0 | 0.00 | 0.16 | 0.01 | 96 | 1020.0 | |
| 20260902103122 | 62 | 0.0 | 0.0 | 0.00 | 0.16 | 0.01 | 96 | 1019.8 | |
| 20260902102557 | 62 | 0.0 | 0.0 | 0.00 | 0.16 | 0.01 | 96 | 1019.9 | |
| 20260902102057 | 61 | 0.0 | 0.0 | 0.00 | 0.16 | 0.01 | 96 | 1019.8 | |
| 20260902101609 | 62 | 0.0 | 0.0 | 0.00 | 0.16 | 0.01 | 96 | 1019.7 | |
| 20260902101100 | 62 | 0.0 | 0.0 | 0.00 | 0.16 | 0.01 | 96 | 1019.7 | |
| 20260902100559 | 62 | 0.0 | 0.0 | 0.00 | 0.16 | 0.01 | 96 | 1019.8 | |
| 20260902100100 | 62 | 0.0 | 0.0 | 0.00 | 0.16 | 0.01 | 96 | 1019.9 | |
| 20260902095556 | 62 | 0.0 | 0.0 | 0.00 | 0.16 | 0.01 | 96 | 1019.7 | |
| 20260902095056 | 62 | 0.0 | 0.0 | 0.00 | 0.16 | 0.01 | 96 | 1019.7 | |
| 20260902094604 | 62 | 0.0 | 0.0 | 0.00 | 0.16 | 0.01 | 96 | 1019.6 | |
| 20260902094055 | 62 | 0.0 | 0.0 | 0.00 | 0.16 | 0.01 | 96 | 1019.6 | |
| 20260902093557 | 62 | 0.0 | 0.0 | 0.00 | 0.16 | 0.01 | 96 | 1019.5 | |
| 20260902093104 | 62 | 0.0 | 0.0 | 0.00 | 0.16 | 0.01 | 96 | 1019.5 | |
| 20260902092600 | 62 | 0.0 | 0.0 | 0.00 | 0.16 | 0.01 | 96 | 1019.4 | |
| 20260902092058 | 62 | 0.0 | 0.0 | 0.00 | 0.16 | 0.01 | 96 | 1019.3 | |
| 20260902091601 | 62 | 0.0 | 0.0 | 0.00 | 0.16 | 0.01 | 96 | 1019.3 | |
| 20260902091058 | 62 | 0.0 | 0.0 | 0.00 | 0.16 | 0.01 | 96 | 1019.5 | |
| 20260902090557 | 62 | 0.0 | 0.0 | 0.00 | 0.16 | 0.01 | 96 | 1019.2 | |
| 20260902085556 | 62 | 0.0 | 0.0 | 0.00 | 0.19 | 0.01 | 96 | 1019.2 | |
| 20260902085056 | 62 | 0.0 | 0.0 | 0.00 | 0.19 | 0.01 | 96 | 1019.2 | |
| 20260902084603 | 62 | 0.0 | 0.0 | 0.00 | 0.19 | 0.01 | 96 | 1019.3 | |
| 20260902084057 | 62 | 0.0 | 0.0 | 0.00 | 0.19 | 0.01 | 96 | 1019.3 | |
| 20260902083559 | 62 | 0.0 | 0.0 | 0.00 | 0.19 | 0.01 | 96 | 1019.2 | |
| 20260902083101 | 62 | 0.0 | 0.0 | 0.00 | 0.19 | 0.01 | 96 | 1019.2 | |
| 20260902082556 | 62 | 0.0 | 0.0 | 0.00 | 0.19 | 0.01 | 96 | 1019.2 | |
| 20260902082056 | 62 | 0.0 | 0.0 | 0.00 | 0.19 | 0.01 | 96 | 1018.9 | |
| 20260902081609 | 62 | 0.0 | 0.0 | 0.00 | 0.19 | 0.01 | 96 | 1019.0 | |
| 20260902081057 | 62 | 0.0 | 0.0 | 0.00 | 0.19 | 0.01 | 96 | 1018.9 | |
| 20260902080558 | 62 | 0.0 | 0.0 | 0.00 | 0.19 | 0.01 | 96 | 1018.7 | |
| 20260902080105 | 62 | 0.0 | 0.0 | 0.00 | 0.19 | 0.01 | 96 | 1018.6 | |
| 20260902075558 | 62 | 0.0 | 0.0 | 0.00 | 0.32 | 0.01 | 96 | 1018.6 | |
| 20260902075057 | 62 | 0.0 | 0.0 | 0.00 | 0.32 | 0.01 | 96 | 1018.8 | |
| 20260902074604 | 62 | 0.0 | 0.0 | 0.00 | 0.32 | 0.01 | 96 | 1018.7 | |
| 20260902074058 | 62 | 0.0 | 0.0 | 0.00 | 0.32 | 0.01 | 96 | 1018.7 | |
| 20260902073557 | 62 | 0.0 | 0.0 | 0.00 | 0.32 | 0.01 | 96 | 1018.7 | |
| 20260902073103 | 62 | 0.0 | 0.0 | 0.00 | 0.32 | 0.01 | 96 | 1018.7 | |
| 20260902072555 | 62 | 0.0 | 0.0 | 0.00 | 0.32 | 0.01 | 96 | 1018.7 | |
| 20260902072059 | 62 | 0.0 | 0.0 | 0.00 | 0.32 | 0.01 | 96 | 1018.5 | |
| 20260902071604 | 62 | 0.0 | 0.0 | 0.00 | 0.32 | 0.01 | 96 | 1018.4 | |
| 20260902071058 | 62 | 0.0 | 0.0 | 0.00 | 0.32 | 0.01 | 96 | 1018.3 | |
| 20260902070556 | 62 | 0.0 | 0.0 | 0.00 | 0.32 | 0.01 | 96 | 1018.3 | |
| 20260902070107 | 62 | 0.0 | 0.0 | 0.00 | 0.32 | 0.01 | 96 | 1018.5 | |
| 20260902065557 | 62 | 0.0 | 0.0 | 0.00 | 0.52 | 0.01 | 96 | 1018.3 | |
| 20260902065058 | 62 | 0.0 | 0.0 | 0.00 | 0.52 | 0.01 | 96 | 1018.3 | |
| 20260902064607 | 62 | 0.0 | 0.0 | 0.01 | 0.52 | 0.01 | 96 | 1018.4 | |
| 20260902064059 | 62 | 0.0 | 0.0 | 0.01 | 0.52 | 0.01 | 96 | 1018.4 | |
| 20260902063556 | 62 | 0.0 | 0.0 | 0.01 | 0.52 | 0.01 | 96 | 1018.3 | |
| 20260902063110 | 62 | 0.0 | 0.0 | 0.01 | 0.52 | 0.01 | 96 | 1018.4 | |
| 20260902062557 | 62 | 0.0 | 0.0 | 0.01 | 0.52 | 0.01 | 96 | 1018.4 | |
| 20260902062056 | 62 | 0.0 | 0.0 | 0.01 | 0.52 | 0.01 | 96 | 1018.5 | |
| 20260902061622 | 62 | 0.0 | 0.0 | 0.01 | 0.52 | 0.01 | 96 | 1018.4 | |
| 20260902061105 | 62 | 0.0 | 0.0 | 0.01 | 0.52 | 0.01 | 96 | 1018.5 | |
| 20260902060557 | 62 | 0.0 | 0.0 | 0.01 | 0.52 | 0.01 | 96 | 1018.4 | |
| 20260902060110 | 62 | 0.0 | 0.0 | 0.01 | 0.52 | 0.01 | 96 | 1018.3 | |
| 20260902055556 | 62 | 0.0 | 0.0 | 0.01 | 0.52 | 0.01 | 96 | 1018.5 | |
| 20260902055057 | 62 | 0.0 | 0.0 | 0.01 | 0.52 | 0.01 | 96 | 1018.7 | |
| 20260902054603 | 62 | 0.0 | 0.0 | 0.00 | 0.51 | 0.00 | 96 | 1018.6 | |
| 20260902054056 | 62 | 0.0 | 0.0 | 0.00 | 0.51 | 0.00 | 96 | 1018.7 | |
| 20260902053556 | 62 | 0.0 | 0.0 | 0.00 | 0.51 | 0.00 | 96 | 1018.5 | |
| 20260902053106 | 62 | 0.0 | 0.0 | 0.00 | 0.51 | 0.00 | 95 | 1018.5 | |
| 20260902052600 | 62 | 0.0 | 0.0 | 0.00 | 0.51 | 0.00 | 95 | 1018.5 | |
| 20260902052056 | 62 | 0.0 | 0.0 | 0.00 | 0.51 | 0.00 | 95 | 1018.4 | |
| 20260902051616 | 62 | 0.0 | 0.0 | 0.00 | 0.51 | 0.00 | 95 | 1018.6 | |
| 20260902051057 | 62 | 0.0 | 0.0 | 0.00 | 0.51 | 0.00 | 95 | 1018.7 | |
| 20260902050600 | 62 | 0.0 | 0.0 | 0.00 | 0.51 | 0.00 | 95 | 1018.6 | |
| 20260902050112 | 62 | 0.0 | 0.0 | 0.00 | 0.51 | 0.00 | 95 | 1018.4 | |
| 20260902045559 | 62 | 0.0 | 0.0 | 0.00 | 0.51 | 0.00 | 95 | 1018.4 | |
| 20260902045057 | 62 | 0.0 | 0.0 | 0.00 | 0.51 | 0.00 | 95 | 1018.5 | |
| 20260902044631 | 62 | 0.0 | 0.0 | 0.00 | 0.51 | 0.00 | 95 | 1018.4 | |
| 20260902044056 | 62 | 0.0 | 0.0 | 0.00 | 0.51 | 0.00 | 95 | 1018.5 | |
| 20260902043640 | 62 | 0.0 | 0.0 | 0.00 | 0.51 | 0.00 | 95 | 1018.4 | |
| 20260902043101 | 62 | 0.0 | 0.0 | 0.00 | 0.51 | 0.00 | 95 | 1018.4 | |
| 20260902042557 | 62 | 0.0 | 0.0 | 0.00 | 0.51 | 0.00 | 95 | 1018.4 | |
| 20260902042057 | 62 | 0.0 | 0.0 | 0.00 | 0.51 | 0.00 | 95 | 1018.1 | |
| 20260902041606 | 62 | 0.0 | 0.0 | 0.01 | 0.51 | 0.00 | 95 | 1018.3 | |
| 20260902041057 | 62 | 0.0 | 0.0 | 0.01 | 0.51 | 0.00 | 95 | 1018.3 | |
| 20260902040557 | 62 | 0.0 | 0.0 | 0.01 | 0.51 | 0.00 | 95 | 1018.4 | |
| 20260902040111 | 62 | 0.0 | 0.0 | 0.01 | 0.51 | 0.00 | 95 | 1018.4 | |
| 20260902035556 | 62 | 0.0 | 0.0 | 0.01 | 0.51 | 0.51 | 95 | 1018.4 | |
| 20260902035058 | 63 | 0.0 | 0.0 | 0.01 | 0.51 | 0.51 | 95 | 1018.1 | |
| 20260902034604 | 63 | 0.0 | 0.0 | 0.01 | 0.51 | 0.51 | 95 | 1018.1 | |
| 20260902034057 | 63 | 0.0 | 0.0 | 0.01 | 0.51 | 0.51 | 95 | 1018.1 | |
| 20260902033556 | 63 | 0.0 | 0.0 | 0.01 | 0.51 | 0.51 | 95 | 1018.1 | |
| 20260902033101 | 63 | 0.0 | 0.0 | 0.01 | 0.51 | 0.51 | 95 | 1018.0 | |
| 20260902032559 | 63 | 0.0 | 0.0 | 0.01 | 0.51 | 0.51 | 95 | 1018.1 | |
| 20260902032057 | 63 | 0.0 | 0.0 | 0.01 | 0.51 | 0.51 | 95 | 1018.1 | |
| 20260902031624 | 63 | 0.0 | 0.0 | 0.00 | 0.50 | 0.50 | 95 | 1018.0 | |
| 20260902031057 | 63 | 0.0 | 0.0 | 0.00 | 0.50 | 0.50 | 95 | 1018.0 | |
| 20260902030556 | 63 | 0.0 | 0.0 | 0.00 | 0.50 | 0.50 | 95 | 1018.1 | |
| 20260902030107 | 63 | 0.0 | 0.0 | 0.00 | 0.50 | 0.50 | 95 | 1018.2 | |
| 20260902025556 | 63 | 0.0 | 0.0 | 0.00 | 0.50 | 0.50 | 95 | 1018.1 | |
| 20260902025057 | 63 | 0.0 | 0.0 | 0.00 | 0.50 | 0.50 | 95 | 1018.0 | |
| 20260902024605 | 63 | 0.0 | 0.0 | 0.00 | 0.50 | 0.50 | 95 | 1018.0 | |
| 20260902024058 | 63 | 0.0 | 0.0 | 0.00 | 0.50 | 0.50 | 95 | 1018.0 | |
| 20260902023556 | 63 | 0.0 | 0.0 | 0.00 | 0.50 | 0.50 | 95 | 1017.9 | |
| 20260902023107 | 63 | 0.0 | 0.0 | 0.00 | 0.50 | 0.50 | 95 | 1017.9 | |
| 20260902022600 | 63 | 0.0 | 0.0 | 0.00 | 0.50 | 0.50 | 95 | 1017.8 | |
| 20260902022056 | 63 | 0.0 | 0.0 | 0.00 | 0.50 | 0.50 | 95 | 1017.7 | |
| 20260902021604 | 63 | 0.0 | 0.0 | 0.00 | 0.50 | 0.50 | 95 | 1017.6 | |
| 20260902021057 | 63 | 0.0 | 0.0 | 0.00 | 0.50 | 0.50 | 95 | 1017.6 | |
| 20260902020557 | 63 | 0.0 | 0.0 | 0.00 | 0.50 | 0.50 | 95 | 1017.6 | |
| 20260902020101 | 63 | 0.0 | 0.0 | 0.00 | 0.50 | 0.50 | 95 | 1017.6 | |
| 20260902015559 | 63 | 0.0 | 0.0 | 0.00 | 0.50 | 0.50 | 95 | 1017.6 | |
| 20260902015057 | 63 | 0.0 | 0.0 | 0.00 | 0.50 | 0.50 | 95 | 1017.3 | |
| 20260902014603 | 63 | 0.0 | 0.0 | 0.00 | 0.50 | 0.50 | 95 | 1017.3 | |
| 20260902014058 | 63 | 0.0 | 0.0 | 0.00 | 0.50 | 0.50 | 95 | 1017.4 | |
| 20260902013558 | 63 | 0.0 | 0.0 | 0.00 | 0.50 | 0.50 | 95 | 1017.4 | |
| 20260902013109 | 63 | 0.0 | 0.0 | 0.00 | 0.50 | 0.50 | 95 | 1017.1 | |
| 20260902012557 | 63 | 0.0 | 0.0 | 0.00 | 0.50 | 0.50 | 95 | 1017.0 | |
| 20260902012056 | 63 | 0.0 | 0.0 | 0.00 | 0.50 | 0.50 | 95 | 1016.8 | |
| 20260902011603 | 63 | 0.0 | 0.0 | 0.00 | 0.50 | 0.50 | 95 | 1016.7 | |
| 20260902011058 | 63 | 0.0 | 0.0 | 0.00 | 0.50 | 0.50 | 95 | 1016.7 | |
| 20260902010557 | 63 | 0.0 | 0.0 | 0.00 | 0.50 | 0.50 | 95 | 1016.7 | |
| 20260902010106 | 63 | 0.0 | 0.0 | 0.00 | 0.50 | 0.50 | 96 | 1016.7 | |
| 20260902005556 | 63 | 0.0 | 0.0 | 0.00 | 0.50 | 0.50 | 96 | 1016.7 | |
| 20260902005056 | 63 | 0.0 | 0.0 | 0.00 | 0.50 | 0.50 | 96 | 1016.7 | |
| 20260902004603 | 63 | 0.0 | 0.0 | 0.00 | 0.50 | 0.50 | 96 | 1016.8 | |
| 20260902004056 | 63 | 0.0 | 0.0 | 0.00 | 0.50 | 0.50 | 96 | 1016.7 | |
| 20260902003557 | 63 | 0.0 | 0.0 | 0.00 | 0.50 | 0.50 | 96 | 1016.6 | |
| 20260902003100 | 64 | 0.0 | 0.0 | 0.00 | 0.50 | 0.50 | 96 | 1016.5 | |
| 20260902002556 | 64 | 0.0 | 0.0 | 0.00 | 0.50 | 0.50 | 96 | 1016.4 | |
| 20260902002056 | 64 | 0.0 | 0.0 | 0.00 | 0.50 | 0.50 | 96 | 1016.3 | |
| 20260902001605 | 64 | 0.0 | 0.0 | 0.00 | 0.50 | 0.50 | 96 | 1016.3 | |
| 20260902001057 | 64 | 0.0 | 0.0 | 0.00 | 0.50 | 0.50 | 96 | 1016.4 | |
| 20260902000556 | 64 | 0.0 | 0.0 | 0.00 | 0.50 | 0.50 | 96 | 1016.7 | |
| 20260902000101 | 64 | 0.0 | 0.0 | 0.00 | 0.50 | 0.50 | 96 | 1016.6 | |
| 20260901235557 | 64 | 0.0 | 0.0 | 0.00 | 0.50 | 0.50 | 96 | 1016.5 | |
| 20260901235056 | 64 | 0.0 | 0.0 | 0.00 | 0.50 | 0.50 | 96 | 1016.6 | |
| 20260901234609 | 64 | 0.0 | 0.0 | 0.00 | 0.50 | 0.50 | 96 | 1016.5 | |
| 20260901234059 | 64 | 0.0 | 0.0 | 0.00 | 0.50 | 0.50 | 96 | 1016.2 | |
| 20260901233557 | 64 | 0.0 | 0.0 | 0.00 | 0.50 | 0.50 | 96 | 1016.1 | |
| 20260901233103 | 64 | 0.0 | 0.0 | 0.00 | 0.50 | 0.50 | 96 | 1016.0 | |
| 20260901232557 | 65 | 0.0 | 0.0 | 0.00 | 0.50 | 0.50 | 96 | 1016.1 | |
| 20260901232102 | 65 | 0.0 | 0.0 | 0.00 | 0.50 | 0.50 | 96 | 1016.1 | |
| 20260901231616 | 65 | 0.0 | 0.0 | 0.00 | 0.50 | 0.50 | 97 | 1016.2 | |
| 20260901231057 | 65 | 0.0 | 0.0 | 0.00 | 0.50 | 0.50 | 96 | 1016.2 | |
| 20260901230556 | 65 | 0.0 | 0.0 | 0.00 | 0.50 | 0.50 | 97 | 1016.1 | |
| 20260901230110 | 65 | 0.0 | 0.0 | 0.00 | 0.50 | 0.50 | 97 | 1016.0 | |
| 20260901225557 | 65 | 0.0 | 0.0 | 0.00 | 0.50 | 0.50 | 96 | 1016.0 | |
| 20260901225056 | 65 | 0.0 | 0.0 | 0.00 | 0.50 | 0.50 | 97 | 1015.9 | |
| 20260901224603 | 66 | 0.0 | 0.0 | 0.00 | 0.50 | 0.50 | 97 | 1015.8 | |
| 20260901224100 | 66 | 0.0 | 0.0 | 0.00 | 0.50 | 0.50 | 97 | 1015.7 | |
| 20260901223601 | 66 | 0.0 | 0.0 | 0.00 | 0.50 | 0.50 | 97 | 1015.6 |